Regional Weather Roundup
Issued by NWS Pendleton, OR

Home | Current Version | Previous Version | Text Only | Print | Product List | Glossary On
Versions: 1 2 3 4 5 6 7 8 9 10 11 12 13 14 15 16 17 18 19 20 21 22 23 24 25 26 27 28 29 30 31 32 33 34 35 36 37 38 39 40 41 42 43 44 45 46 47 48 49 50
905
ASUS46 KPDT 111125
RWRPDT
PENDLETON REGIONAL WEATHER ROUNDUP
NATIONAL WEATHER SERVICE PENDLETON OREGON
300 AM PST SUN DEC 11 2016

NOTE: FAIR INDICATES FEW OR NO CLOUDS BELOW 12,000 FEET WITH NO
SIGNIFICANT WEATHER AND/OR OBSTRUCTIONS TO VISIBILITY.

# INDICATES UNOFFICIAL STATION AND DATA

WAZ520-111210-
EAST SLOPES OF WASHINGTON CASCADES

CITY            SKY/WX      TMP DP  RH  WIND    PRES   REMARKS
#CLE ELUM HS    N/A         20  15  81  CALM    29.90R
#CLE ELUM LAKE  N/A         17  15  92  CALM    30.03R
#GLENWOOD       N/A         34  33  96  S7      30.03R
#NELSON 3SW     N/A         15  13  92  CALM    30.28R
#NILE           N/A         12  10  91  CALM    29.31S
#RONALD 2NW     N/A         18  N/A N/A S1      29.86R
#TEANAWAY 4NE   N/A         18  16  92  CALM    N/A
#TROUT LAKE 1NE N/A         32  31  96  CALM    30.05R
#TROUT LAKE 1E  N/A         32  31  96  CALM    29.97S
$$

WAZ521-111210-
SIMCOE HIGHLANDS

CITY            SKY/WX      TMP DP  RH  WIND    PRES   REMARKS
#CENTERVILLE 1SWN/A         26  24  92  CALM    30.04R
#GOLDENDALE 1NE N/A         31  30  96  CALM    N/A
#GOLDENDALE 4W  N/A         31  20  63  CALM    30.00R
#GOODNOE HILLS  N/A         32  28  85  NW7     29.88S
#LYLE 6NE       N/A         32  31  96  CALM    30.03R
$$

WAZ026-111210-
KITTITAS VALLEY

CITY            SKY/WX      TMP DP  RH  WIND    PRES   REMARKS
ELLENSBURG AP   CLOUDY      21  18  88  CALM    29.95R FOG
#ELLENSBURG CWU N/A         19  17  92  CALM    30.01S
#ELLENSBURG 3NE N/A         19  17  92  CALM    28.04R
#ELLENSBURG 1E  N/A         19  N/A N/A CALM    N/A
#KITTITAS 4N    N/A         20  16  84  CALM    29.98S
#KITTITAS 3S    N/A         20  18  92  CALM    30.07S
#THORP 6N       N/A         17  15  92  CALM    30.10S
$$

WAZ027-111210-
YAKIMA VALLEY

CITY            SKY/WX      TMP DP  RH  WIND    PRES   REMARKS
SUNNYSIDE AP    CLOUDY      21  20  96  CALM    30.03S FOG
YAKIMA AIRPORT  CLOUDY      24  20  84  SW3     30.01R FOG
YAKIMA-VAGABOND FRZFOG      21  19  92  CALM    29.96S VSB 5/8
#DONALD 2NE     N/A         21  13  71  SW1     28.85S
#GRANDVIEW      N/A         21  19  92  CALM    30.10R
#MABTON         N/A         22  21  96  CALM    30.03S
#NACHES 2SW     N/A         21  19  92  CALM    29.94R
#TERRACE HTS    N/A         22  21  96  CALM    30.06R
#TOPPENISH      N/A         23  21  92  CALM    30.00R
#WEST VALLEY    N/A         22  19  88  CALM    30.08R
#W YAKIMA       N/A         22  20  92  CALM    30.09R
#WHITE SWAN 5E  N/A         22  21  96  CALM    30.10R
#WILEY CITY 3W  N/A         21  16  81  CALM    29.95R
$$

WAZ028-111210-
LOWER COLUMBIA BASIN...WASHINGTON

CITY            SKY/WX      TMP DP  RH  WIND    PRES   REMARKS
PASCO           CLOUDY      20  19  96  CALM    30.05S FOG
PROSSER AWOS    N/A         23  23  100 CALM    30.07R
RICHLAND AWOS   CLOUDY      21  20  96  CALM    30.05S FOG
#BENTON CITY    N/A         21  20  96  CALM    29.98R
#CONNELL 5N     N/A         23  22  96  CALM    30.06S
#CONNELL 5NW    N/A         23  21  92  CALM    30.02F
#ELTOPIA 6NW    N/A         23  22  96  CALM    28.97S
#KAHLOTUS       N/A         23  22  96  CALM    30.07S
#KENNEWICK 3S   N/A         21  19  92  CALM    30.07S
#PATERSON       N/A         21  19  92  CALM    30.06R
#SAGEMOOR 2W    N/A         22  20  92  CALM    29.91S
#TOUCHET 2S     N/A          6   3  87  CALM    30.06F
#WEST PASCO     N/A         22  19  88  CALM    30.06F
$$

WAZ029-111210-
FOOTHILLS OF THE BLUES...WASHINGTON

CITY            SKY/WX      TMP DP  RH  WIND    PRES   REMARKS
WALLA WALLA AP  PTCLDY      34  26  72  S9      29.99R
#CLYDE 6NW      N/A         21  20  96  CALM    30.06F
#DAYTON SCHOOL  N/A         38  25  59  S9      29.99R
#LOWDEN 2SE     N/A         12  10  91  CALM    30.01S
#PLEASANT VIEW 1N/A         23  22  96  SW7     30.10F
#PRESCOTT       N/A         16  14  92  CALM    30.06S
#WHITMAN COLLEGEN/A         34  29  82  SE3     30.11S
#WAITSBURG 5S   N/A         36  31  82  S12     30.16S WCI 28
#WAITSBURG 8N   N/A         32  N/A N/A S8      29.96S
#WALLA WALLA 5E N/A         40  33  76  S13     N/A    WCI 32
#WHITMAN MISSIONN/A         16  14  92  CALM    30.08F
$$

WAZ030-111210-
BLUE MOUNTAINS...WASHINGTON

CITY            SKY/WX      TMP DP  RH  WIND    PRES   REMARKS
#DIXIE 5SE      N/A         35  28  75  SW15    29.88R WCI 25
$$

ORZ009-041-WAZ024-111210-
COLUMBIA RIVER GORGE

CITY            SKY/WX      TMP DP  RH  WIND    PRES   REMARKS
HOOD RIVER AP   MXD PCPN    30  28  92  CALM    30.03R
THE DALLES AP   PTCLDY      23  21  92  CALM    30.05R FOG
#ARLINGTON AIRPON/A         24  22  92  CALM    30.07F
#ARLINGTON HS   N/A         22  17  81  CALM    29.95S
#CELILO DOT     N/A         27  22  81  E1      N/A
#LYLE           N/A         28  26  92  CALM    30.08R
#MOSIER 1S      N/A         28  23  81  CALM    N/A
#MURDOCK        N/A         25  22  88  CALM    30.04R
#RUFUS DOT      N/A         25  22  88  SE3     N/A
#SMITHVILLE     N/A         22  19  88  N1      30.01R

$$

ORZ510-111210-
NORTH CENTRAL OREGON

CITY            SKY/WX      TMP DP  RH  WIND    PRES   REMARKS
#ANTELOPE       N/A         19  16  88  NE1     29.99S
#CHENOWITH 1W   N/A         35  34  96  W9      N/A
#COW CYN RST AREN/A         33  N/A N/A S8      N/A
#DUFUR 9E       N/A         36  29  75  SW18    30.09S WCI 26
#GRASS VALLEY 1SN/A         29  26  88  S7      29.90S
#KENT DOT       N/A         33  23  66  N14     N/A    WCI 23
#MAUPIN SCHOOL  N/A         31  27  85  S1      30.05S
#MORO SCHOOL    N/A         33  30  89  S6      29.94F
#SHANIKO 5WSW   N/A         31  21  66  N16     N/A    WCI 20
#SHANIKO 4NW    N/A         30  26  85  SW5     29.93S
#TYGH VALLEY 2NEN/A         30  26  85  CALM    30.09R
#WAPANITIA AIRPON/A         34  29  82  S2      30.10S
#WASCO DOT      N/A         19  16  88  E3      N/A
#WASCO 5NE      N/A         23  21  92  CALM    30.06F
$$

ORZ511-111210-
CENTRAL OREGON

CITY            SKY/WX      TMP DP  RH  WIND    PRES   REMARKS
BEND AIRPORT    CLEAR       34  25  69  SW16    29.99R WCI 24
MADRAS AIRPORT  MOCLDY      34  28  78  SW10    30.01R
PRINEVILLE AP   MOCLDY      23  23  100 CALM    30.00S
REDMOND AIRPORT PTCLDY      29  23  78  S8      30.00R
#ASHWOOD SCHOOL N/A         34  26  72  CALM    29.96R
#BEND-AWBREY    N/A         31  28  88  S12     30.06R WCI 22
#BEND-KIM LN    N/A         26  24  92  S2      29.90S
#CULVER         N/A         34  28  78  SE3     30.03S
#CULVER 8W      N/A         34  28  78  CALM    29.98S
#LAKE BILLY CHINN/A         34  N/A N/A SE3     30.10S
#MADRAS 4S      N/A         N/A N/A N/A N1      30.07R
#POWELL BUTTE   N/A         36  23  59  SW13    29.94R WCI 27
#PRINEVILLE 3N  N/A         21  20  96  CALM    30.09R

$$


ORZ509-111210-
EAST SLOPES OF OREGON CASCADES

CITY            SKY/WX      TMP DP  RH  WIND    PRES   REMARKS
SISTERS AWOS    N/A         30  28  92  CALM    29.95S
#BLUE BOX PASS  N/A         29  N/A N/A CALM    N/A
#LA PINE 4NW    N/A         27  24  88  CALM    30.14S
#LAVA BUTTE DOT N/A         29  24  81  SE5     N/A
#SISTERS AIRPOR N/A         30  30  100 CALM    30.17S
#SISTERS ODOT   N/A         30  N/A N/A CALM    N/A
#SISTERS 3N     N/A         28  24  85  CALM    30.00S
#SUNRIVER       N/A         29  26  88  SW1     30.10S
#TUMALO 3W      N/A         31  27  85  S3      29.94R
#WANOGA BUTTE D N/A         24  24  100 W16     N/A    WCI 11

$$

ORZ044-111210-
LOWER COLUMBIA BASIN...OREGON

CITY            SKY/WX      TMP DP  RH  WIND    PRES   REMARKS
HERMISTON       PTCLDY      16  13  88  S6      30.02S FOG
#BOARDMAN SCHOOLN/A         21  19  92  SE1     30.05S
#BOARDMAN 8SW   N/A         20  18  92  CALM    30.07S
#ECHO 8SW       N/A         16  12  84  CALM    30.03S
#I-84 EX 198 DOTN/A         35  26  69  SW2     N/A
#UMATILLA       N/A         19  17  92  CALM    30.00S
$$

ORZ507-111210-
NORTHERN FOOTHILLS OF THE BLUES

CITY            SKY/WX      TMP DP  RH  WIND    PRES   REMARKS
PENDLETON AIRPT PTCLDY      33  25  72  SW7     29.98S
#ADAMS 3WNW     N/A         26  23  88  CALM    30.08S
#ATHENA         N/A         31  26  81  CALM    30.09F
#CAYUSE         N/A         38  28  67  W2      30.05F
#HELIX SCHOOL   N/A         25  23  92  N5      30.09F
#HELIX 3N       N/A         30  26  85  S8      29.94S
#HOLDMAN 5SE    N/A         33  28  82  CALM    29.97F
#HOLDMAN 6E     N/A         31  27  85  SE7     29.86F
#M-F GROVE ELEM N/A         35  28  75  S2      29.97R
#M-FREEWATER 5SEN/A         42  30  62  S7      29.99R
#PENDLETON DNTN N/A         25  20  81  CALM    30.01S
#PDT AQUATIC CTRN/A         26  23  88  CALM    29.98S
#PDT SUNRIDGE   N/A         28  24  85  S1      30.01S
#PENDLETON 7NW  N/A         23  19  84  CALM    32.41S
#PILOT ROCK 1S  N/A         37  23  56  S1      29.99R
#PILOT ROCK     N/A         36  28  72  W6      30.00R
#TUTUILLA       N/A         34  29  82  CALM    30.06S
#UMAPINE 2E     N/A         21  20  96  CALM    29.98S
#WESTON SCHOOL  N/A         38  25  59  W7      29.90S

$$

ORZ508-111210-
SOUTHERN FOOTHILLS OF THE BLUES

CITY            SKY/WX      TMP DP  RH  WIND    PRES   REMARKS
LEXINGTON       CLOUDY      37  28  70  SE12    30.00F WCI 29
#AJAX           N/A         36  22  56  SE10    27.71S
#CONDON SCHOOL  N/A         31  27  85  SW2     29.92S
#CONDON 5W      N/A         31  25  78  SW10    29.91S
#HEPPNER EOC    N/A         37  27  67  S7      29.99S
#HEPPNER 4NE    N/A         33  27  78  CALM    30.06S
#LEXINGTON 2SE  N/A         38  28  67  S8      29.96S
#MIKKALO        N/A         37  28  70  S10G24  30.06F
#OLEX 4N        N/A         29  25  85  CALM    29.98F
#RUGGS 2SW      N/A         34  26  72  SW9     30.08F

$$

ORZ502-503-111210-
BLUE MOUNTAINS

CITY            SKY/WX      TMP DP  RH  WIND    PRES   REMARKS
MEACHAM         CLOUDY      26  23  88  CALM    29.94S
#BATTLE MTN DOT N/A         27  22  81  SE7     N/A
#HEPPNER 15SE   N/A         29  24  81  N1      29.94R
#LADD CYN SMT   N/A         20  19  96  SE13    N/A    WCI  7
#LADD CREEK ODOTN/A         23  22  96  SW6     N/A
#LONG CREEK HS  N/A         32  29  89  SW10    29.97R
#N POWDER DOT   N/A         14  12  92  N1      N/A
#PIKES PEAK     N/A         33  25  72  SW17G25 27.99S WCI 22
#TOLLGATE       N/A         26  25  96  CALM    29.77S
#TROY SCHOOL    N/A         26  24  92  CALM    29.94R
#UKIAH          N/A         24  22  92  CALM    30.00R
#WESTON 4E      N/A         34  28  78  S6      30.04S
$$

ORZ505-111210-
JOHN DAY BASIN

CITY            SKY/WX      TMP DP  RH  WIND    PRES   REMARKS
JOHN DAY        CLOUDY      34  25  69  W3      30.01R
#ANTELOPE 9ESE  N/A         22  20  92  SW3     N/A
#DAYVILLE SCHOOLN/A         37  24  59  S9      29.99S
#MITCHELL       N/A         32  28  85  CALM    30.16S
#MITCHELL 8NW   N/A         34  25  69  S7      29.93S
#MONUMENT HS    N/A         26  23  88  CALM    30.03R
#MT. VERNON 5SE N/A         31  24  75  CALM    29.96R
#SPRAY SCHOOL   N/A         26  N/A N/A CALM    N/A
$$

ORZ506-111210-
OCHOCO AND JOHN DAY HIGHLANDS

CITY            SKY/WX      TMP DP  RH  WIND    PRES   REMARKS
#BUCK CREEK DOT N/A         N/A N/A N/A SW5     N/A
#HORSE RIDGE DO N/A         27  20  74  SE1     N/A
#KEYES SMT DOT  N/A         31  24  75  SW6     N/A
#PAULINA SCHOOL N/A         27  23  85  NE2     N/A
#PINE MTN OBS   N/A         22  21  96  SE7     N/A
#PRAIRIE CITY   N/A         27  22  81  CALM    30.17R
#SENECA         N/A         23  N/A N/A SW9     N/A
#SENECA 9NW     N/A         20  18  92  CALM    30.10R
$$

ORZ049-111210-
GRANDE RONDE VALLEY

CITY            SKY/WX      TMP DP  RH  WIND    PRES   REMARKS
LA GRANDE       PTCLDY      27  19  71  CALM    29.98S
#COVE           N/A         32  29  89  VRB1    30.01F
#COVE SCHOOL    N/A         33  28  82  E1      30.00F
#COVE 6NW       N/A         29  24  81  CALM    30.08S
#ELGIN 3N       N/A         30  26  85  CALM    29.95S
#ELGIN 1E       N/A         33  28  82  CALM    N/A
#IMBLER SCHOOL  N/A         30  26  85  CALM    29.95S
#ISLAND CITY 4N N/A         40  40  100 CALM    30.04S
#UNION 1S       N/A         29  24  81  SE7     30.09F
$$

ORZ050-111210-
WALLOWA COUNTY

CITY            SKY/WX      TMP DP  RH  WIND    PRES   REMARKS
JOSEPH AIRPORT  LGT SNOW    27  23  85  CALM    29.95S
#IMNAHA 10S     N/A         28  22  78  SW5     29.98S
#JOSEPH 3N      N/A         20  12  71  CALM    29.97S
#JOSEPH 3W      N/A         25  21  84  CALM    29.78S
#LOSTINE        N/A         26  21  81  E3      29.89S
#LOSTINE 3SE    N/A         25  21  84  S3      29.96S
#MT HOWARD 8000 N/A         16  12  84  W6      29.76R
#PROMISE 1S     N/A         30  26  85  NE5     30.14R
#WALLOWA SCHOOL N/A         24  21  88  CALM    29.95F



$$



USA.gov is the U.S. government's official web portal to all federal, state and local government web resources and services.